Location: Newark
(22.3060°N, 114.2134°E)
Time: 22:37:30
(UTC+00:00)

Vanguard 2 - Pass Details

Date: 11 August 2021
Orbit: 553 x 2937 km, 32.9° (Epoch: 26 September)

Event Time Altitude Azimuth Distance (km) Brightness Sun altitude
Rises 16:53:16 0° 255° (WSW) 4,593 - -52.1°
Reaches altitude 10° 16:57:03 10° 260° (W) 3,218 - -52.0°
Maximum altitude 17:04:15 53° 336° (NNW) 1,040 - -51.6°
Drops below altitude 10° 17:08:55 10° 54° (NE) 2,102 - -51.3°
Sets 17:10:57 0° 60° (ENE) 2,882 - -51.2°
